www.pogodaiklimat.ru

ПОГОДА в Савунге, AK

  • Прогноз погоды в Савунге
  • Монитор погоды в Савунге
  • Климат в Савунге

АРХИВ ПОГОДЫ в Савунге

Время (UTC), дата Ветер
(напр.,м/с)
 
Видим.   Явления Облачность Т
(С)
Тd
(С)
f
(%)
Тe
(С)
Тes
(С)
Комфортность

P
(гПа)

Po
(гПа)
Тmin
(С)
Tmax
(С)
R
(мм)
SD
(см)
08:11 22.05 СВ  11 км    10/10 240 м  0.0  -2.0  86  -6  -6      1018.6         
09:56 22.05 СВ  11 км    10/10 180 м  -0.6  -1.7  92  -6  -6    1021.1  1018.9         
10:56 22.05 С  16 км    10/10 240 м  -0.6  -1.7  92  -5  -5    1021.0  1018.9  -0.6  +0.6     
12:56 22.05 С  16 км    10/10 240 м  -0.6  -1.7  92  -6  -6    1021.2  1018.9         
13:33 22.05 С  13 км    10/10 270 м  -1.0  -2.0  93  -7  -7      1018.9         
14:56 22.05 С  16 км    10/10 270 м  -0.6  -1.7  92  -6  -6    1021.2  1018.9         
16:56 22.05 С  2 км  слабый снег, дымка  10/10 150 м  0.0  -1.1  92  -6  -6    1021.4  1019.3  -0.6  0.0     
17:12 22.05 С  5 км  слабый снег, дымка  10/10 150 м  0.0  -1.0  93  -6  -6      1018.9         
17:20 22.05 С  3 км  слабый снег, дымка  10/10 150 м  0.0  -1.0  93  -6  -6      1018.9         
18:09 22.05 С  4 км  неопределенные осадки, дымка  10/10 90 м  0.0  -1.0  93  -6  -6      1018.9         
18:42 22.05 С  2 км  слабый дождь, дымка  10/10 90 м  +1.0  -1.0  86  -5  -5      1018.9         
18:56 22.05 С  3 км  неопределенные осадки, дымка  10/10 90 м  +0.6  -0.6  92  -6  -6    1021.1  1018.9         
19:05 22.05 С  5 км  неопределенные осадки, дымка  10/10 90 м  +1.0  -1.0  86  -5  -5      1018.9         
19:56 22.05 С  8 км  дымка  10/10 150 м  +1.1  -0.6  88  -5  -5    1021.1  1018.9         
20:14 22.05 С  3 км  дымка  10/10 150 м  +1.0  -1.0  86  -5  -5      1018.9         
20:36 22.05 С  2 км  неопределенные осадки, дымка  10/10 90 м  +1.0  -1.0  86  -5  -5      1018.9         
21:56 22.05 С  2 км  неопределенные осадки, дымка  10/10 90 м  +1.1  -0.6  88  -5  -5    1020.9  1018.6         
22:05 22.05 С  2 км  неопределенные осадки, дымка  10/10 90 м  +1.0  -1.0  86  -5  -5      1018.6         
22:17 22.05 С  2 км  неопределенные осадки, дымка  10/10 90 м  +1.0  -1.0  86  -5  -5      1018.6         
22:56 22.05 С  2 км  дымка  10/10 90 м  +0.6  -0.6  92  -6  -6    1020.8  1018.6  0.0  +1.1     
23:20 22.05 С  800 м  туман  10/10 90 м  +1.0  -1.0  86  -6  -6      1018.6         
23:33 22.05 С  400 м  слабый дождь, туман  10/10 90 м  +1.0  -1.0  86  -6  -6      1018.6         
23:56 22.05 С  400 м  туман  10/10 90 м  +0.6  -0.6  92  -7  -7    1020.5  1018.3         
00:56 23.05 С  400 м  туман  10/10 90 м  0.0  -0.6  96  -7  -7    1020.5  1018.3         
02:56 23.05 С  400 м  туман  10/10 90 м  0.0  -0.6  96  -7  -7    1020.3  1018.3         
03:56 23.05 С  400 м  туман  10/10 90 м  0.0  -0.6  96  -6  -6    1020.5  1018.3         
05:56 23.05 С  400 м  туман  10/10 90 м  0.0  -0.6  96  -5  -5    1020.5  1018.3         
07:32 23.05 С  800 м  туман  10/10 90 м  0.0  -1.0  93  -5  -5      1018.3         
07:41 23.05 С  2 км  дымка  10/10 90 м  0.0  -1.0  93  -5  -5      1018.3         
10:41 23.05 С  16 км    10/10 150 м  -1.0  -1.0  100  -7  -7      1018.6         
12:56 23.05 СЗ  16 км    10/10 300 м  -0.6  -0.6  100  -6  -6    1020.8  1018.6         
13:56 23.05 СЗ  16 км    10/10 240 м  -0.6  -1.1  96  -6  -6    1021.2  1018.9         
14:28 23.05 З  16 км    10/10 300 м  -1.0  -2.0  93  -6  -6      1018.9         
14:56 23.05 СЗ  16 км    10/10 360 м  -0.6  -1.7  92  -6  -6    1021.2  1018.9         
15:56 23.05 З  16 км    10/10 300 м  -0.6  -1.7  92  -6  -6    1021.2  1018.9         
17:56 23.05 З  16 км    10/10 300 м  0.0  -2.2  85  -5  -5    1021.3  1018.9         
18:21 23.05 З  2 км  слабый снег, дымка  10/10 120 м  +1.0  -2.0  80  -3  -3      1018.9         
18:26 23.05 З  3 км  слабый снег, дымка  10/10 180 м  +1.0  -2.0  80  -4  -4      1018.9         
18:35 23.05 З  13 км  слабый снег  10/10 180 м  +1.0  -1.0  86  -4  -4      1018.9         
18:56 23.05 З  16 км    10/10 180 м  +1.1  -1.7  82  -4  -4    1021.3  1018.9         
20:56 23.05 ЮЗ  16 км    10/10 420 м  +0.6  -1.7  85  -5  -5    1022.1  1020.0         
21:56 23.05 З  16 км    10/10 420 м  +1.7  -1.7  78  -4  -4    1021.9  1019.6         
22:56 23.05 З  16 км    10/10 300 м  +1.1  -0.6  88  -5  -5    1022.0  1019.6  0.0  +1.7     
03:52 24.05 З  16 км    10/10 240 м  +1.0  -1.0  86  -6  -6      1020.6         
03:56 24.05 З  16 км    10/10 240 м  +0.6  -1.1  88  -7  -7    1022.8  1020.6         
06:56 24.05 ЮЗ  16 км    10/10 180 м  0.0  -1.1  92  -7  -7    1023.1  1021.0         
08:56 24.05 З  16 км    10/10 180 м  -0.6  -1.7  92  -9  -9    1023.2  1021.0         
09:06 24.05 З  16 км    8/8 120 м  -1.0  -2.0  93  -9  -9      1021.0         

 

Местоположение метеостанции Savoonga Airport: широта 63.6833 долгота -170.5000 высота над уровнем моря 16 м.

В архиве по умолчанию представлена погода в Савунге за последние 1-2 суток. Обновление информации о фактической погоде в базе происходит ежечасно! Архивные данные за месяц целиком и за предыдущие месяцы Вы можете получить, выбрав интересующий диапазон дат из раскрывающегося списка и нажав кнопку "Ввод!".

Внимание! Архив погоды МЕТАР в базе сайта хранится не более 60 дней. Нет смысла пытаться выбрать более раннюю дату.

Внимание! Время в таблицах - всемирное. Для получения местного времени необходимо прибавить поправку, которая в Савунге равна -9 ч.

Ветер - указаны скорость ветра в м/с и направление, откуда дует ветер: С - северный, СВ - северо-восточный, В - восточный, ЮВ - юго-восточный, Ю - южный, ЮЗ - юго-западный, З - западный, СЗ - северо-западный.
Видимость - горизонтальная дальность видимости в метрах или километрах. При видимости от 1 до 10 км при отсутствии осадков обычно наблюдается дымка, при ухудшении видимости до 1 км и менее - туман. В сухую погоду видимость может ухудшаться дымом, пылью или мглою.
Атмосферные явления - указаны явления, наблюдавшиеся в указанный момент времени.
Облачность - указаны через наклонную черту верхняя и нижняя облачность в баллах и высота нижней границы облаков в метрах. Внимание: облачность, как и прочие метеорологические величины в США измеряются автоматическими метеостанциями. Указанные значения в баллах носят условный характер и показывают процент времени, в течение которого, в среднем, лазерный луч высотомера отражался от облаков обратно.
T - Температура воздуха - температура, измеренная на высоте 2 м над землей.
Td - Температура точки росы - температура, при понижении до которой содержащийся в воздухе водяной пар достигнет насыщения.
f - Относительная влажность воздуха - влажноcть воздуха, измеренная на высоте 2 м над землей.
Te - Эффективная температура - температура, которую ощущает одетый по сезону человек в тени. Характеристика душности погоды. При расчете учитывается влияние влажности воздуха и скорости ветра на теплоощущения человека.
Tes - Эффективная температура на солнце - температура, которую ощущает человек, с поправкой на солнечный нагрев. Характеристика знойности погоды. Зависит от высоты солнца над горизонтом, облачности и скорости ветра. Ночью, в пасмурную погоду, а также при ветре 12 м/с и более поправка равна нулю.
P - Атмосферное давление - приведенное к уровню моря атмосферное давление.
Po - Атмосферное давление - измеренное на уровне метеостанции атмосферное давление.
Tmin - Минимальная температура - минимум температуры воздуха на высоте 2 м над землей.
Tmax - Максимальная температура - максимум температуры воздуха на высоте 2 м над землей.
R - Количество осадков - Количество выпавших осадков за 3 или 6 часов, мм.
SD - Снежный покров - Высота снежного покрова, см.